Boulder City, NV

2:36 PM PDT on April 20, 2018 (GMT -0700)
Boulder City

Weather History for KBVU - February, 2014

Change the Weather History Date:

Saturday, February 1, 2014

  Actual Average (KLAS) Record (KLAS)
Temperature  
Mean Temperature 47 °F -  
Max Temperature 53 °F 59 °F 81 °F (2003)
Min Temperature 41 °F 36 °F 17 °F (1937)
Degree Days  
Heating Degree Days 18    
Moisture  
Dew Point 14 °F    
Average Humidity 28    
Maximum Humidity 43    
Minimum Humidity 18    
Precipitation  
Precipitation 0.00 in - - ()
Sea Level Pressure  
Sea Level Pressure 30.01 in    
Wind  
Wind Speed 14 mph (North)    
Max Wind Speed 22 mph    
Max Gust Speed 29 mph    
Visibility 10 miles    
Events      
Averages and records for this station are not official NWS values.
T = Trace of Precipitation, MM = Missing Value Source: NWS Daily Summary

Daily Weather History Graph

Daily Weather History Graph

Search for Another Location

Airport or City:

Astronomy

Feb. 01, 2014 Rise Set
Actual Time 6:39 AM PST 5:06 PM PST
Civil Twilight 6:12 AM PST 5:33 PM PST
Nautical Twilight 5:42 AM PST 6:04 PM PST
Astronomical Twilight 5:12 AM PST 6:34 PM PST
Moon 7:37 AM PST (2/1) 7:40 PM PST (2/1)
Length of Visible Light 11h 20m
Length of Day
10h 26m
Waxing Crescent, 5% of the Moon is Illuminated
Feb 1
Waxing Crescent
Feb 6
First Quarter
Feb 14
Full
Feb 22
Last Quarter
Mar 1
New

Hourly Weather History & Observations

Time (PST) Temp. Windchill Dew Point Humidity Pressure Visibility Wind Dir Wind Speed Gust Speed Precip Events Conditions
12:15 AM 48.2 °F - 23.0 °F 37% 29.91 in 10.0 mi North 9.2 mph - N/A   Partly Cloudy
12:35 AM 48.2 °F - 21.2 °F 34% 29.90 in 10.0 mi NNW 18.4 mph - N/A   Clear
12:55 AM 48.2 °F - 21.2 °F 34% 29.90 in 10.0 mi NNW 19.6 mph 26.5 mph N/A   Clear
1:15 AM 46.4 °F 40.4 °F 23.0 °F 40% 29.91 in 10.0 mi NNW 13.8 mph 21.9 mph N/A   Clear
1:35 AM 44.6 °F 38.8 °F 23.0 °F 43% 29.92 in 10.0 mi North 11.5 mph 17.3 mph N/A   Clear
1:55 AM 44.6 °F 38.1 °F 19.4 °F 37% 29.91 in 10.0 mi NNW 13.8 mph - N/A   Clear
2:15 AM 44.6 °F 36.9 °F 21.2 °F 39% 29.91 in 10.0 mi NNW 18.4 mph 24.2 mph N/A   Clear
2:35 AM 44.6 °F 36.6 °F 21.2 °F 39% 29.92 in 10.0 mi NNW 19.6 mph 26.5 mph N/A   Clear
2:55 AM 42.8 °F 35.4 °F 21.2 °F 42% 29.93 in 10.0 mi North 15.0 mph - N/A   Clear
3:15 AM 42.8 °F 36.2 °F 21.2 °F 42% 29.93 in 10.0 mi NNW 12.7 mph - N/A   Clear
3:35 AM 42.8 °F 35.8 °F 21.2 °F 42% 29.93 in 10.0 mi NNW 13.8 mph - N/A   Clear
3:55 AM 42.8 °F 35.1 °F 19.4 °F 39% 29.93 in 10.0 mi NNW 16.1 mph - N/A   Clear
4:15 AM 42.8 °F 34.5 °F 17.6 °F 36% 29.93 in 10.0 mi NNW 18.4 mph - N/A   Clear
4:35 AM 42.8 °F 33.8 °F 15.8 °F 34% 29.93 in 10.0 mi NNW 21.9 mph 28.8 mph N/A   Clear
4:55 AM 42.8 °F 34.5 °F 14.0 °F 31% 29.95 in 10.0 mi NNW 18.4 mph 25.3 mph N/A   Clear
5:15 AM 41.0 °F 31.9 °F 14.0 °F 33% 29.95 in 10.0 mi NNW 19.6 mph - N/A   Clear
5:35 AM 41.0 °F 31.9 °F 14.0 °F 33% 29.97 in 10.0 mi NNW 19.6 mph 25.3 mph N/A   Clear
5:55 AM 41.0 °F 33.1 °F 14.0 °F 33% 29.98 in 10.0 mi NNW 15.0 mph 21.9 mph N/A   Clear
6:15 AM 41.0 °F 33.9 °F 14.0 °F 33% 29.99 in 10.0 mi NNW 12.7 mph - N/A   Clear
6:35 AM 41.0 °F 34.3 °F 14.0 °F 33% 30.00 in 10.0 mi NNW 11.5 mph - N/A   Clear
6:55 AM 41.0 °F 33.9 °F 14.0 °F 33% 30.01 in 10.0 mi NNW 12.7 mph 20.7 mph N/A   Clear
7:15 AM 42.8 °F 35.1 °F 14.0 °F 31% 30.01 in 10.0 mi NNW 16.1 mph - N/A   Clear
7:35 AM 42.8 °F 34.3 °F 14.0 °F 31% 30.02 in 10.0 mi NNW 19.6 mph - N/A   Clear
7:55 AM 42.8 °F 35.8 °F 14.0 °F 31% 30.03 in 10.0 mi NNW 13.8 mph 20.7 mph N/A   Clear
8:15 AM 44.6 °F 37.2 °F 14.0 °F 29% 30.03 in 10.0 mi NNW 17.3 mph - N/A   Clear
8:35 AM 44.6 °F 36.6 °F 14.0 °F 29% 30.03 in 10.0 mi NNW 19.6 mph - N/A   Clear
8:55 AM 44.6 °F 36.9 °F 14.0 °F 29% 30.04 in 10.0 mi NNW 18.4 mph 24.2 mph N/A   Clear
9:15 AM 46.4 °F 39.0 °F 14.0 °F 27% 30.05 in 10.0 mi NNW 19.6 mph - N/A   Clear
9:35 AM 46.4 °F 40.4 °F 14.0 °F 27% 30.06 in 10.0 mi NNW 13.8 mph 20.7 mph N/A   Clear
9:55 AM 48.2 °F - 14.0 °F 25% 30.06 in 10.0 mi NNW 17.3 mph 23.0 mph N/A   Clear
10:15 AM 48.2 °F - 14.0 °F 25% 30.06 in 10.0 mi North 20.7 mph - N/A   Clear
10:35 AM 48.2 °F - 14.0 °F 25% 30.06 in 10.0 mi North 15.0 mph 24.2 mph N/A   Clear
10:55 AM 50.0 °F - 14.0 °F 24% 30.05 in 10.0 mi North 16.1 mph - N/A   Clear
11:15 AM 50.0 °F - 14.0 °F 24% 30.05 in 10.0 mi NNW 12.7 mph 20.7 mph N/A   Clear
11:35 AM 50.0 °F - 14.0 °F 24% 30.04 in 10.0 mi NNW 16.1 mph - N/A   Clear
11:55 AM 51.8 °F - 12.2 °F 21% 30.04 in 10.0 mi North 15.0 mph 23.0 mph N/A   Clear
12:15 PM 51.8 °F - 12.2 °F 21% 30.03 in 10.0 mi NNW 12.7 mph 24.2 mph N/A   Clear
12:35 PM 51.8 °F - 12.2 °F 21% 30.02 in 10.0 mi NNE 15.0 mph 21.9 mph N/A   Clear
12:55 PM 51.8 °F - 12.2 °F 21% 30.02 in 10.0 mi North 15.0 mph 20.7 mph N/A   Clear
1:15 PM 51.8 °F - 12.2 °F 21% 30.01 in 10.0 mi North 19.6 mph 26.5 mph N/A   Clear
1:35 PM 51.8 °F - 12.2 °F 21% 30.01 in 10.0 mi NNE 11.5 mph 19.6 mph N/A   Clear
1:55 PM 51.8 °F - 10.4 °F 19% 30.01 in 10.0 mi North 12.7 mph 20.7 mph N/A   Clear
2:15 PM 53.6 °F - 10.4 °F 18% 30.01 in 10.0 mi North 11.5 mph 18.4 mph N/A   Clear
2:35 PM 53.6 °F - 10.4 °F 18% 30.02 in 10.0 mi North 10.4 mph 18.4 mph N/A   Clear
2:55 PM 53.6 °F - 10.4 °F 18% 30.01 in 10.0 mi North 12.7 mph 18.4 mph N/A   Clear
3:15 PM 51.8 °F - 10.4 °F 19% 30.02 in 10.0 mi North 13.8 mph 19.6 mph N/A   Clear
3:35 PM 53.6 °F - 10.4 °F 18% 30.02 in 10.0 mi North 13.8 mph - N/A   Clear
3:55 PM 51.8 °F - 8.6 °F 18% 30.02 in 10.0 mi North 9.2 mph 18.4 mph N/A   Clear
4:15 PM 51.8 °F - 8.6 °F 18% 30.02 in 10.0 mi North 13.8 mph - N/A   Clear
4:35 PM 51.8 °F - 8.6 °F 18% 30.03 in - North 9.2 mph 15.0 mph N/A   Clear
4:55 PM 50.0 °F - 8.6 °F 19% 30.03 in 10.0 mi NNE 9.2 mph - N/A   Clear
5:15 PM 50.0 °F - 8.6 °F 19% 30.03 in 10.0 mi North 11.5 mph - N/A   Clear
5:35 PM 50.0 °F - 8.6 °F 19% 30.04 in 10.0 mi North 9.2 mph - N/A   Clear
5:55 PM 48.2 °F - 8.6 °F 20% 30.04 in 10.0 mi NNE 5.8 mph - N/A   Clear
6:15 PM 48.2 °F - 10.4 °F 22% 30.05 in 10.0 mi North 6.9 mph - N/A   Clear
6:35 PM 46.4 °F 43.5 °F 10.4 °F 23% 30.05 in 10.0 mi North 5.8 mph - N/A   Clear
6:55 PM 46.4 °F 42.4 °F 10.4 °F 23% 30.06 in 10.0 mi NNE 8.1 mph - N/A   Clear
7:15 PM 46.4 °F 42.9 °F 12.2 °F 25% 30.06 in 10.0 mi NNE 6.9 mph - N/A   Clear
7:35 PM 44.6 °F 40.2 °F 14.0 °F 29% 30.06 in 10.0 mi NE 8.1 mph - N/A   Clear
7:55 PM 44.6 °F 39.2 °F 15.8 °F 31% 30.07 in 10.0 mi NNE 10.4 mph - N/A   Clear
8:15 PM 44.6 °F 38.8 °F 14.0 °F 29% 30.07 in 10.0 mi NNE 11.5 mph - N/A   Clear
8:35 PM 44.6 °F 39.2 °F 14.0 °F 29% 30.08 in 10.0 mi NNE 10.4 mph - N/A   Clear
8:55 PM 44.6 °F 39.2 °F 12.2 °F 27% 30.08 in 10.0 mi NNE 10.4 mph - N/A   Clear
9:15 PM 44.6 °F 38.8 °F 12.2 °F 27% 30.09 in 10.0 mi NNE 11.5 mph - N/A   Clear
9:35 PM 44.6 °F 38.1 °F 10.4 °F 25% 30.09 in 10.0 mi NNE 13.8 mph - N/A   Clear
9:55 PM 44.6 °F 38.4 °F 10.4 °F 25% 30.09 in 10.0 mi NNE 12.7 mph - N/A   Clear
10:15 PM 44.6 °F 38.4 °F 10.4 °F 25% 30.08 in 10.0 mi NNE 12.7 mph - N/A   Clear
10:35 PM 44.6 °F 38.1 °F 10.4 °F 25% 30.08 in 10.0 mi NNE 13.8 mph - N/A   Clear
10:55 PM 44.6 °F 38.1 °F 10.4 °F 25% 30.08 in 10.0 mi NNE 13.8 mph - N/A   Clear
11:15 PM 44.6 °F 38.1 °F 10.4 °F 25% 30.08 in 10.0 mi NNE 13.8 mph - N/A   Clear
11:35 PM 42.8 °F 36.6 °F 10.4 °F 27% 30.08 in - NNE 11.5 mph - N/A   Clear
11:55 PM 42.8 °F 38.0 °F 10.4 °F 27% 30.08 in 10.0 mi NNE 8.1 mph - N/A   Clear